K5KVN-2 Weather Reports


Display with metric or nautical units.
time (UTC)temp
F
wind
direction
speed
MPH
gust
MPH
rain 1hr
in
rain 24hr
in
rain mn
in
humidity
%
barometer
mb
20260506210809 58 15 3.0 9.0 0.00 0.02 0.00 63 1015.4
20260506205805 57 62 3.0 9.0 0.00 0.02 0.00 64 1015.5
20260506204805 58 52 4.0 10.0 0.00 0.02 0.00 63 1015.7
20260506203805 58 311 3.0 10.0 0.00 0.02 0.00 64 1016.1
20260506202804 58 9 2.0 6.0 0.00 0.02 0.00 64 1016.2
20260506202236 57 115 2.0 8.0 0.00 0.02 0.00 65 1016.3
20260506200803 58 323 3.0 8.0 0.00 0.02 0.00 64 1016.4
20260506200237 58 348 2.0 9.0 0.00 0.02 0.00 65 1016.4
20260506194801 56 59 2.0 10.0 0.00 0.02 0.00 66 1016.8
20260506193803 57 334 3.0 9.0 0.00 0.02 0.00 68 1017.0
20260506192800 57 20 4.0 10.0 0.00 0.02 0.00 65 1016.9
20260506191806 58 14 3.0 9.0 0.00 0.02 0.00 66 1016.8
20260506190803 58 5 3.0 9.0 0.00 0.02 0.00 67 1017.0
20260506185802 57 58 6.0 15.0 0.00 0.02 0.00 65 1017.0
20260506184802 56 51 3.0 11.0 0.00 0.02 0.00 67 1017.0
20260506183757 55 0 6.0 13.0 0.00 0.02 0.00 68 1017.3
20260506182759 55 90 4.0 11.0 0.00 0.02 0.00 66 1017.3
20260506181757 55 100 5.0 14.0 0.00 0.02 0.00 64 1017.5
20260506180753 54 24 5.0 15.0 0.00 0.02 0.00 67 1017.7
20260506175758 55 324 7.0 15.0 0.00 0.02 0.00 70 1017.8
20260506174753 54 349 4.0 10.0 0.00 0.02 0.00 72 1017.9
20260506173751 53 334 3.0 9.0 0.00 0.02 0.00 73 1018.1
20260506172754 53 22 4.0 10.0 0.00 0.02 0.00 74 1018.4
20260506171754 53 316 4.0 11.0 0.00 0.02 0.00 74 1018.6
20260506170747 52 0 4.0 12.0 0.00 0.02 0.00 75 1018.6
20260506165748 52 33 4.0 10.0 0.00 0.02 0.00 74 1017.8
20260506165254 52 18 3.0 9.0 0.00 0.02 0.00 74 1018.0
20260506163749 52 28 4.0 10.0 0.00 0.02 0.00 75 1017.8
20260506162748 52 46 3.0 9.0 0.00 0.02 0.00 76 1017.6
20260506162225 51 42 3.0 9.0 0.00 0.02 0.00 75 1017.3
20260506160746 51 34 3.0 10.0 0.00 0.02 0.00 75 1017.4
20260506155739 52 355 2.0 7.0 0.00 0.02 0.00 75 1017.4
20260506154739 52 60 2.0 10.0 0.00 0.02 0.00 76 1017.0
20260506154216 51 47 3.0 11.0 0.00 0.02 0.00 76 1017.0
20260506152736 51 67 2.0 8.0 0.00 0.02 0.00 78 1016.9
20260506151736 50 115 3.0 10.0 0.00 0.02 0.00 78 1017.3
20260506150732 50 47 2.0 7.0 0.00 0.02 0.00 79 1017.5
20260506145733 50 355 2.0 8.0 0.00 0.02 0.00 79 1017.3
20260506144734 49 10 3.0 11.0 0.00 0.02 0.00 80 1017.1
20260506143736 49 65 4.0 12.0 0.00 0.02 0.00 80 1017.0
20260506142733 49 10 4.0 12.0 0.00 0.02 0.00 80 1016.9
20260506142207 49 89 3.0 11.0 0.00 0.02 0.00 81 1016.7
20260506141223 48 40 3.0 9.0 0.00 0.02 0.00 82 1016.7
20260506135731 48 38 4.0 14.0 0.00 0.02 0.00 83 1016.8
20260506134736 48 41 4.0 11.0 0.00 0.02 0.00 83 1017.2
20260506133731 48 44 2.0 7.0 0.00 0.02 0.00 84 1017.2
20260506132731 47 34 4.0 9.0 0.00 0.02 0.00 84 1017.1
20260506132212 47 5 4.0 10.0 0.00 0.02 0.00 83 1017.0
20260506131223 47 75 3.0 14.0 0.00 0.02 0.00 84 1016.9
20260506130219 47 40 3.0 9.0 0.00 0.02 0.00 83 1016.8
20260506124731 47 298 4.0 10.0 0.00 0.02 0.00 83 1016.7
20260506123732 47 340 4.0 12.0 0.00 0.02 0.00 83 1016.6
20260506122731 47 19 3.0 14.0 0.00 0.02 0.00 83 1016.6
20260506122203 47 53 3.0 13.0 0.00 0.02 0.00 83 1016.1
20260506120729 46 36 4.0 11.0 0.00 0.02 0.00 82 1015.7
20260506115730 46 333 5.0 13.0 0.00 0.02 0.00 82 1015.7
20260506114730 47 314 5.0 13.0 0.00 0.02 0.00 82 1015.7
20260506113730 47 346 5.0 14.0 0.00 0.02 0.00 83 1015.5
20260506112731 47 355 2.0 8.0 0.00 0.02 0.00 83 1015.4
20260506112217 47 333 2.0 6.0 0.00 0.02 0.00 82 1015.4
20260506110730 47 19 1.0 4.0 0.00 0.02 0.00 81 1015.1
20260506104726 46 50 2.0 5.0 0.00 0.02 0.00 82 1014.7
20260506103725 46 24 2.0 10.0 0.00 0.02 0.00 82 1014.6
20260506102726 46 71 2.0 8.0 0.00 0.02 0.00 82 1014.1
20260506101724 46 49 2.0 8.0 0.00 0.03 0.00 82 1014.3
20260506100725 46 50 3.0 12.0 0.00 0.03 0.00 82 1013.8
20260506095726 46 73 3.0 11.0 0.00 0.03 0.00 83 1013.5
20260506094724 46 21 2.0 9.0 0.00 0.03 0.00 83 1013.2
20260506093725 46 74 2.0 6.0 0.00 0.03 0.00 82 1013.1
20260506092722 47 128 2.0 14.0 0.00 0.04 0.00 82 1012.7
20260506091722 47 71 3.0 14.0 0.00 0.04 0.00 82 1012.8
20260506090722 47 355 3.0 13.0 0.00 0.04 0.00 84 1013.3
20260506085723 47 29 4.0 11.0 0.00 0.05 0.00 84 1013.3
20260506084722 47 75 4.0 13.0 0.00 0.05 0.00 85 1013.2
20260506083722 47 13 2.0 10.0 0.00 0.05 0.00 86 1013.2
20260506083219 47 12 3.0 10.0 0.00 0.06 0.00 86 1012.8
20260506081722 47 72 3.0 12.0 0.00 0.07 0.00 88 1012.2
20260506080722 47 331 3.0 10.0 0.00 0.32 0.00 88 1012.3
20260506073210 47 104 2.0 5.0 0.00 0.46 0.00 90 1012.1
20260506070722 47 0 3.0 12.0 0.00 0.46 0.00 90 1012.2
20260506061717 47 332 4.0 13.0 0.00 0.53 0.00 90 1012.3
20260506060717 47 63 3.0 13.0 0.00 0.53 0.00 91 1012.5
20260506050708 47 342 3.0 10.0 0.00 0.53 0.00 93 1012.2
20260506044710 47 33 3.0 10.0 0.00 0.53 0.53 93 1012.1
20260506044201 47 51 4.0 10.0 0.00 0.53 0.53 93 1011.9
20260506042702 47 14 3.0 8.0 0.00 0.53 0.53 93 1012.0
20260506040703 48 348 3.0 9.0 0.00 0.53 0.53 92 1011.7
20260506035703 48 34 2.0 9.0 0.00 0.53 0.53 92 1011.5
20260506034702 48 49 2.0 6.0 0.00 0.53 0.53 92 1011.3
20260506033702 48 59 3.0 11.0 0.00 0.53 0.53 92 1011.4
20260506033150 48 33 3.0 11.0 0.00 0.53 0.53 92 1011.2
20260506031704 48 40 4.0 10.0 0.00 0.53 0.53 93 1011.0
20260506030658 48 31 4.0 12.0 0.00 0.53 0.53 93 1010.7
20260506025658 48 56 3.0 10.0 0.00 0.53 0.53 93 1010.6
20260506024654 48 15 5.0 14.0 0.00 0.53 0.53 93 1010.3
20260506023653 48 40 4.0 10.0 0.00 0.53 0.53 94 1010.0
20260506023133 48 33 2.0 6.0 0.00 0.53 0.53 94 1009.9
20260506020655 48 340 4.0 9.0 0.00 0.53 0.53 93 1009.7
20260506015653 48 327 2.0 8.0 0.00 0.53 0.53 93 1009.6
20260506014654 48 55 3.0 8.0 0.02 0.53 0.53 93 1009.5
20260506013656 48 26 4.0 9.0 0.02 0.53 0.53 93 1009.9
20260506012654 48 294 3.0 9.0 0.02 0.53 0.53 93 1009.7
20260506011653 48 327 4.0 10.0 0.02 0.53 0.53 93 1009.4
20260506010655 48 340 3.0 10.0 0.02 0.53 0.53 92 1009.5
20260506005655 49 26 4.0 12.0 0.02 0.53 0.53 92 1009.4
20260506004649 49 37 4.0 13.0 0.00 0.51 0.51 92 1009.1
20260506003648 49 345 4.0 11.0 0.00 0.51 0.51 93 1009.2
20260506002647 49 9 5.0 11.0 0.00 0.51 0.51 93 1008.8
20260506001646 49 342 5.0 13.0 0.00 0.51 0.51 93 1008.9
20260506000645 49 309 6.0 13.0 0.00 0.51 0.51 93 1008.6
20260506000125 49 309 5.0 12.0 0.00 0.51 0.51 93 1008.5
20260505234644 50 346 7.0 15.0 0.00 0.51 0.51 92 1008.3
20260505233649 50 349 4.0 17.0 0.00 0.51 0.51 92 1007.9
20260505233124 51 355 8.0 17.0 0.00 0.51 0.51 92 1007.9
20260505231640 51 345 6.0 14.0 0.00 0.51 0.51 91 1008.3
20260505230639 52 15 6.0 13.0 0.00 0.51 0.51 91 1008.1
20260505225640 53 338 6.0 12.0 0.00 0.51 0.51 91 1007.7
20260505224639 53 26 4.0 13.0 0.00 0.51 0.51 90 1007.1
20260505223638 53 355 4.0 11.0 0.00 0.51 0.51 90 1007.4
20260505222637 53 355 6.0 12.0 0.00 0.51 0.51 90 1007.7
20260505221633 54 24 5.0 10.0 0.00 0.51 0.51 90 1007.3
20260505220633 54 13 6.0 11.0 0.00 0.51 0.51 90 1006.8
20260505215635 55 15 5.0 14.0 0.00 0.51 0.51 90 1006.8
20260505214635 55 320 4.0 10.0 0.00 0.51 0.51 91 1006.6
20260505213633 55 338 6.0 12.0 0.00 0.51 0.51 90 1006.8
20260505212631 56 340 5.0 10.0 0.00 0.51 0.51 91 1007.3
20260505212112 56 340 6.0 16.0 0.00 0.51 0.51 90 1006.8